Flag for U.S.A. Weather past 2 weeks in Jacksonville, Florida, U.S.A.

Now
90 °F

Passing clouds.


Feels Like: 90 °F
Forecast: 75 / 92 °F
Wind: 8 mph from Northwest

Location: Jacksonville Naval Air Station

Current Time: Jul 29, 2014 at 10:37:20 PM

Latest Report: Jul 29, 2014 at 9:53 PM


Visibility: 10 mi

Pressure: 29.92 "Hg

Humidity: 37%

Dew point: 60 °F

Location of JacksonvilleLocation

Historic Weather in Jacksonville — Graph

°F

Jacksonville temperature yesterday

Maximum temperature yesterday: 96 °F (at 2:53 PM)
Minimum temperature yesterday: 82 °F (at 4:53 AM)
Average temperature yesterday: 88 °F

Past Weeks' High & Low Weather Summary

 TemperatureHumidityPressure
High97 °F (Jul 27, 2:53 PM)90% (Jul 17, 3:53 AM)30.09 "Hg (Jul 17, 3:53 AM)
Low75 °F (Jul 17, 3:53 AM)32% (Jul 29, 5:53 PM)29.86 "Hg (Jul 16, 4:01 PM)
Average85 °F68%30.00 "Hg
* Reported Jul 14 8:53 PM — Jul 29 8:53 PM, Jacksonville, Weather by CustomWeather, © 2014

Note: Actual official high and low records may vary slightly from our data, if they occured in-between our weather recording intervals... More about our weather records

Advertising

Jacksonville weather history for previous 24 hours

 ConditionsComfort  
Time TempWeatherWind HumidityBarometerVisibility
8:53 PM
Jul 29
91 °FScattered clouds.6 mph37%29.90 "Hg10 mi
7:53 PM93 °FScattered clouds.6 mph38%29.89 "Hg10 mi
6:53 PM95 °FScattered clouds.7 mph34%29.87 "Hg10 mi
5:53 PM96 °FScattered clouds.9 mph32%29.87 "Hg10 mi
4:53 PM97 °FScattered clouds.12 mph33%29.86 "Hg10 mi
3:53 PM97 °FScattered clouds.12 mph34%29.87 "Hg10 mi
2:53 PM93 °FScattered clouds.5 mph42%29.89 "Hg10 mi
1:53 PM92 °FScattered clouds.6 mph46%29.90 "Hg10 mi
12:53 PM90 °FScattered clouds.6 mph48%29.92 "Hg10 mi
11:53 AM90 °FPassing clouds.6 mph48%29.94 "Hg10 mi
10:53 AM88 °FPassing clouds.3 mph50%29.94 "Hg10 mi
9:53 AM85 °FPassing clouds.7 mph61%29.93 "Hg10 mi
8:53 AM82 °FPassing clouds.6 mph67%29.91 "Hg10 mi
7:53 AM81 °FPassing clouds.8 mph72%29.90 "Hg10 mi
6:53 AM81 °FPassing clouds.8 mph74%29.89 "Hg10 mi
5:53 AM82 °FPassing clouds.8 mph79%29.88 "Hg10 mi
4:53 AM83 °FPassing clouds.8 mph82%29.88 "Hg9 mi
3:53 AM83 °FPassing clouds.9 mph82%29.88 "Hg10 mi
2:53 AM84 °FMostly cloudy.12 mph80%29.89 "Hg10 mi
1:53 AM84 °FPartly cloudy.10 mph77%29.89 "Hg10 mi
12:53 AM85 °FPassing clouds.8 mph75%29.90 "Hg10 mi
11:53 PM
Jul 28
86 °FPassing clouds.13 mph72%29.91 "Hg10 mi
10:53 PM87 °FPartly cloudy.12 mph67%29.93 "Hg10 mi
Weather by CustomWeather, © 2014

See weather overviewHow to use our weather pages